DRAUGEN current weather conditions

sailwx.info

Wind from 080 at 27 knots

Air temperature 16.0° C
Dewpoint 11.0° C

Last reported at 2014-Aug-29 20:20 UTC.
Time now 2014-Aug-29 22:28 UTC

Location: N 64°22' E 007°47'.
View on Google Maps.

See reports from other nearby stations

  
Tides and Currents Weather Stations Pressure Air Temp Water Temp Dewpoint Dewpoint Depression Visibility Wind Speed Wind Dir Waves Ship Positions
date/time (UTC)wind fromknots sea level pressurealtimeterstation pressurevisibilityair tempwater tempwave heightnotes
2014-Aug-29 21:20 080 22 17.0
2014-Aug-29 20:50 080 25 17.0
2014-Aug-29 20:20 080 27 16.0
2014-Aug-29 19:50 080 27 17.0
2014-Aug-29 19:20 080 27 17.0
2014-Aug-29 18:50 080 27 17.0
2014-Aug-29 18:20 070 27 16.0
2014-Aug-29 17:50 070 27 17.0
2014-Aug-29 17:20 070 26 17.0
2014-Aug-29 16:50 060 24 17.0
2014-Aug-29 16:20 060 23 17.0
2014-Aug-29 15:50 060 20 16.0
2014-Aug-29 15:10 060 22 17.0
2014-Aug-29 14:50 070 24 17.0
2014-Aug-29 14:20 16.0
2014-Aug-29 13:50 060 19 16.0
2014-Aug-29 13:20 060 19 16.0
2014-Aug-29 12:50 070 20 16.0
2014-Aug-29 12:10 070 22 16.0
2014-Aug-29 11:50 070 20 16.0
2014-Aug-29 11:20 070 19 16.0
2014-Aug-29 10:50 090 17 16.0
2014-Aug-29 10:20 090 17 16.0
2014-Aug-29 09:50 090 17 16.0
2014-Aug-29 09:20 090 18 15.0
2014-Aug-29 08:50 090 18 15.0
2014-Aug-29 08:20 090 18 15.0
2014-Aug-29 07:50 090 20 15.0
2014-Aug-29 07:20 090 18 15.0
2014-Aug-29 06:50 090 16 15.0
2014-Aug-29 06:10 080 18 15.0
2014-Aug-29 05:50 080 18 14.0
2014-Aug-29 05:20 070 18 14.0
2014-Aug-29 04:50 070 20 14.0
2014-Aug-29 04:20 060 19 14.0
2014-Aug-29 03:50 060 17 13.0
2014-Aug-29 02:50 060 17 13.0
2014-Aug-29 02:20 060 19 13.0
2014-Aug-29 01:50 060 17 13.0
2014-Aug-29 01:20 060 17 13.0
2014-Aug-29 00:50 060 19 13.0
2014-Aug-29 00:20 060 20 13.0
2014-Aug-28 23:50 060 20 13.0
2014-Aug-28 23:20 060 20 13.0
2014-Aug-28 22:50 060 20 13.0
2014-Aug-28 22:20 060 23 13.0
2014-Aug-28 21:50 060 20 13.0
2014-Aug-28 21:20 060 24 13.0
2014-Aug-28 20:50 060 20 13.0
2014-Aug-28 20:20 060 20 13.0
2014-Aug-28 19:50 060 20
2014-Aug-28 19:20 060 22 13.0
2014-Aug-28 18:50 060 18 13.0
2014-Aug-28 18:20 060 16 13.0
2014-Aug-28 17:50 060 16 13.0
2014-Aug-28 17:20 070 16 14.0
2014-Aug-28 16:50 070 16 14.0
2014-Aug-28 16:20 070 15 14.0
2014-Aug-28 15:50 070 14 15.0
2014-Aug-28 15:10 060 12 5.414.0
2014-Aug-28 14:50 070 13 15.0
2014-Aug-28 14:20 070 13 15.0
2014-Aug-28 13:50 070 13 15.0
2014-Aug-28 13:20 080 10 15.0
2014-Aug-28 12:50 100 11 14.0
2014-Aug-28 12:10 070 12 5.414.0
2014-Aug-28 11:50 070 12 14.0
2014-Aug-28 11:20 060 12 15.0
2014-Aug-28 10:50 060 10 15.0
2014-Aug-28 10:20 040 13 15.0
2014-Aug-28 09:50 030 13 14.0
2014-Aug-28 09:10 050 10 5.414.0
2014-Aug-28 08:50 040 14 15.0
2014-Aug-28 08:20 040 13 15.0
2014-Aug-28 07:50 040 14 15.0
2014-Aug-28 07:20 030 14 14.0
2014-Aug-28 06:50 040 12 15.0
2014-Aug-28 06:10 040 12 5.415.0 Showers in the vicinity.
2014-Aug-28 05:50 050 10 14.0
2014-Aug-28 05:20 040 10 14.0
2014-Aug-28 04:50 020 10 13.0
2014-Aug-28 04:20 010 10 13.0
2014-Aug-28 03:50 010 9 13.0
2014-Aug-28 03:20 010 9 13.0
2014-Aug-28 02:50 010 9 13.0
2014-Aug-28 02:20 360 10 13.0
2014-Aug-28 01:50 010 11 13.0
2014-Aug-28 01:20 350 10 13.0
2014-Aug-28 00:50 360 9 13.0
2014-Aug-28 00:20 360 9 13.0
2014-Aug-27 23:50 360 9 13.0
2014-Aug-27 23:20 360 11 13.0
2014-Aug-27 22:50 340 7 13.0
2014-Aug-27 22:20 330 6 12.0